Location: Aldenham
(51.6667°N, 0.3500°W)
Time: 18:26:44
(UTC+00:00)

Explorer 7 - Pass Details

Date: 23 February 2026
Orbit: 430 x 542 km, 50.2° (Epoch: 8 March)

Event Time Altitude Azimuth Distance (km) Brightness Sun altitude
Rises 14:18:39 0° 243° (WSW) 2,411 11.1 23.1°
Reaches altitude 10° 14:20:46 10° 238° (WSW) 1,555 10.5 22.9°
Maximum altitude 14:24:09 49° 162° (SSE) 586 7.7 22.6°
Drops below altitude 10° 14:27:40 10° 87° (E) 1,610 8.9 22.3°
Sets 14:29:54 0° 82° (E) 2,507 9.8 22.1°
